Time,TemperatureF,DewpointF,PressureIn,WindDirection,WindDirectionDegrees,WindSpeedMPH,WindSpeedGustMPH,Humidity,HourlyPrecipIn,Conditions,Clouds,dailyrainin,SoftwareType,DateUTC
2013-07-03 00:03:00,68.4,68.1,29.84,SSW,202,0.0,-999.0,99,-99.99,,,0.00,Acu-Link.com,2013-07-03 04:03:00,
2013-07-03 00:18:00,68.2,67.9,29.84,SSW,202,1.1,-999.0,99,-99.99,,,0.00,Acu-Link.com,2013-07-03 04:18:00,
2013-07-03 00:33:00,68.2,67.9,29.84,SSW,202,0.0,-999.0,99,-99.99,,,0.00,Acu-Link.com,2013-07-03 04:33:00,
2013-07-03 00:48:00,68.2,67.9,29.83,SSW,202,0.0,-999.0,99,-99.99,,,0.00,Acu-Link.com,2013-07-03 04:48:00,
2013-07-03 01:03:00,68.0,67.7,29.83,SSW,202,0.0,-999.0,99,-99.99,,,0.00,Acu-Link.com,2013-07-03 05:03:00,
2013-07-03 01:19:00,68.0,67.7,29.83,SW,225,0.0,-999.0,99,-99.99,,,0.00,Acu-Link.com,2013-07-03 05:19:00,
2013-07-03 01:34:00,67.8,67.5,29.83,SSE,157,0.0,-999.0,99,-99.99,,,0.00,Acu-Link.com,2013-07-03 05:34:00,
2013-07-03 01:49:00,67.6,67.3,29.82,SSW,202,0.0,-999.0,99,-99.99,,,0.00,Acu-Link.com,2013-07-03 05:49:00,
2013-07-03 02:04:00,67.6,67.3,29.82,SSW,202,0.0,-999.0,99,-99.99,,,0.00,Acu-Link.com,2013-07-03 06:04:00,
2013-07-03 02:20:00,67.6,67.3,29.82,SSW,202,0.0,-999.0,99,-99.99,,,0.00,Acu-Link.com,2013-07-03 06:20:00,
2013-07-03 02:35:00,67.5,67.2,29.82,SSE,157,0.0,-999.0,99,-99.99,,,0.00,Acu-Link.com,2013-07-03 06:35:00,
2013-07-03 03:05:00,67.6,67.3,29.81,South,180,0.0,-999.0,99,-99.99,,,0.00,Acu-Link.com,2013-07-03 07:05:00,
2013-07-03 03:21:00,67.8,67.5,29.81,SW,225,0.0,-999.0,99,-99.99,,,0.00,Acu-Link.com,2013-07-03 07:21:00,
2013-07-03 03:36:00,67.8,67.5,29.82,WSW,247,0.0,-999.0,99,-99.99,,,0.00,Acu-Link.com,2013-07-03 07:36:00,
2013-07-03 03:51:00,67.8,67.5,29.81,SSW,202,0.0,-999.0,99,-99.99,,,0.00,Acu-Link.com,2013-07-03 07:51:00,
2013-07-03 04:23:00,67.8,67.5,29.82,South,180,0.0,-999.0,99,-99.99,,,0.00,Acu-Link.com,2013-07-03 08:23:00,
2013-07-03 04:38:00,67.8,67.5,29.82,ENE,67,0.0,-999.0,99,-99.99,,,0.00,Acu-Link.com,2013-07-03 08:38:00,
2013-07-03 05:08:00,67.8,67.5,29.82,SW,225,0.0,-999.0,99,-99.99,,,0.00,Acu-Link.com,2013-07-03 09:08:00,
2013-07-03 05:24:00,67.8,67.5,29.83,SSE,157,0.0,-999.0,99,-99.99,,,0.00,Acu-Link.com,2013-07-03 09:24:00,
2013-07-03 05:54:00,67.1,66.8,29.83,SSW,202,1.7,-999.0,99,-99.99,,,0.09,Acu-Link.com,2013-07-03 09:54:00,
2013-07-03 06:09:00,67.1,66.8,29.84,ESE,112,0.0,-999.0,99,-99.99,,,0.09,Acu-Link.com,2013-07-03 10:09:00,
2013-07-03 06:24:00,67.1,66.8,29.84,ENE,67,1.7,-999.0,99,-99.99,,,0.09,Acu-Link.com,2013-07-03 10:24:00,
2013-07-03 06:39:00,67.1,66.8,29.84,SSW,202,0.0,-999.0,99,-99.99,,,0.09,Acu-Link.com,2013-07-03 10:39:00,
2013-07-03 06:54:00,66.9,66.6,29.84,SSW,202,0.0,-999.0,99,-99.99,,,0.09,Acu-Link.com,2013-07-03 10:54:00,
2013-07-03 07:10:00,66.9,66.6,29.85,SW,225,0.0,-999.0,99,-99.99,,,0.09,Acu-Link.com,2013-07-03 11:10:00,
2013-07-03 07:25:00,66.9,66.6,29.85,SW,225,0.0,-999.0,99,-99.99,,,0.09,Acu-Link.com,2013-07-03 11:25:00,
2013-07-03 07:55:00,67.1,66.8,29.86,SW,225,0.0,-999.0,99,-99.99,,,0.10,Acu-Link.com,2013-07-03 11:55:00,
2013-07-03 08:11:00,67.1,66.8,29.87,SSW,202,2.2,-999.0,99,-99.99,,,0.10,Acu-Link.com,2013-07-03 12:11:00,
2013-07-03 08:26:00,67.3,67.0,29.87,SSW,202,0.0,-999.0,99,-99.99,,,0.10,Acu-Link.com,2013-07-03 12:26:00,
2013-07-03 08:41:00,67.5,67.2,29.88,South,180,0.0,-999.0,99,-99.99,,,0.10,Acu-Link.com,2013-07-03 12:41:00,
2013-07-03 08:56:00,68.0,67.7,29.89,WSW,247,1.1,-999.0,99,-99.99,,,0.10,Acu-Link.com,2013-07-03 12:56:00,
2013-07-03 09:11:00,68.2,67.9,29.89,SSE,157,0.0,-999.0,99,-99.99,,,0.10,Acu-Link.com,2013-07-03 13:11:00,
2013-07-03 09:42:00,68.4,68.1,29.89,SSW,202,1.7,-999.0,99,-99.99,,,0.10,Acu-Link.com,2013-07-03 13:42:00,
2013-07-03 09:57:00,68.4,68.1,29.88,South,180,1.7,-999.0,99,-99.99,,,0.10,Acu-Link.com,2013-07-03 13:57:00,
2013-07-03 10:12:00,69.1,68.8,29.88,South,180,1.7,-999.0,99,-99.99,,,0.10,Acu-Link.com,2013-07-03 14:12:00,
2013-07-03 10:28:00,69.1,68.8,29.89,South,180,3.7,-999.0,99,-99.99,,,0.10,Acu-Link.com,2013-07-03 14:28:00,
2013-07-03 10:43:00,68.9,68.6,29.89,SSW,202,2.7,-999.0,99,-99.99,,,0.10,Acu-Link.com,2013-07-03 14:43:00,
2013-07-03 10:58:00,69.3,69.0,29.89,SSW,202,3.2,-999.0,99,-99.99,,,0.10,Acu-Link.com,2013-07-03 14:58:00,
2013-07-03 11:29:00,69.1,68.8,29.90,SSW,202,2.7,-999.0,99,-99.99,,,0.11,Acu-Link.com,2013-07-03 15:29:00,
2013-07-03 11:59:00,68.7,68.4,29.89,SW,225,0.0,-999.0,99,-99.99,,,0.29,Acu-Link.com,2013-07-03 15:59:00,
2013-07-03 12:15:00,68.9,68.6,29.90,SSW,202,2.2,-999.0,99,-99.99,,,0.29,Acu-Link.com,2013-07-03 16:15:00,
2013-07-03 12:45:00,70.0,69.7,29.89,SW,225,1.1,-999.0,99,-99.99,,,0.29,Acu-Link.com,2013-07-03 16:45:00,
2013-07-03 13:16:00,70.7,69.8,29.88,ESE,112,0.0,-999.0,97,-99.99,,,0.29,Acu-Link.com,2013-07-03 17:16:00,
2013-07-03 13:31:00,70.9,70.0,29.88,SSW,202,0.0,-999.0,97,-99.99,,,0.29,Acu-Link.com,2013-07-03 17:31:00,
2013-07-03 14:16:00,74.1,71.0,29.87,ENE,67,1.1,-999.0,90,-99.99,,,0.29,Acu-Link.com,2013-07-03 18:16:00,
2013-07-03 14:47:00,73.2,71.7,29.86,SSW,202,0.0,-999.0,95,-99.99,,,0.29,Acu-Link.com,2013-07-03 18:47:00,
2013-07-03 15:02:00,73.2,70.7,29.86,ESE,112,0.0,-999.0,92,-99.99,,,0.29,Acu-Link.com,2013-07-03 19:02:00,
2013-07-03 15:17:00,73.4,71.6,29.85,NE,45,0.0,-999.0,94,-99.99,,,0.29,Acu-Link.com,2013-07-03 19:17:00,
2013-07-03 15:33:00,73.4,71.2,29.85,SE,135,0.0,-999.0,93,-99.99,,,0.29,Acu-Link.com,2013-07-03 19:33:00,
2013-07-03 15:48:00,73.4,70.9,29.84,SE,135,0.0,-999.0,92,-99.99,,,0.29,Acu-Link.com,2013-07-03 19:48:00,
2013-07-03 16:03:00,72.9,70.8,29.85,ENE,67,0.0,-999.0,93,-99.99,,,0.29,Acu-Link.com,2013-07-03 20:03:00,
2013-07-03 16:18:00,72.9,70.4,29.84,ENE,67,0.0,-999.0,92,-99.99,,,0.29,Acu-Link.com,2013-07-03 20:18:00,
2013-07-03 16:34:00,72.7,70.6,29.85,SW,225,0.0,-999.0,93,-99.99,,,0.29,Acu-Link.com,2013-07-03 20:34:00,
2013-07-03 16:49:00,72.0,69.9,29.86,SE,135,0.0,-999.0,93,-99.99,,,0.29,Acu-Link.com,2013-07-03 20:49:00,
2013-07-03 17:04:00,71.4,69.6,29.85,ENE,67,0.0,-999.0,94,-99.99,,,0.29,Acu-Link.com,2013-07-03 21:04:00,
2013-07-03 17:35:00,69.1,68.8,29.87,SW,225,5.3,-999.0,99,-99.99,,,0.30,Acu-Link.com,2013-07-03 21:35:00,
2013-07-03 17:50:00,67.6,67.3,29.88,SSW,202,4.7,-999.0,99,-99.99,,,0.45,Acu-Link.com,2013-07-03 21:50:00,
2013-07-03 18:21:00,66.6,66.3,29.90,SSW,202,3.7,-999.0,99,-99.99,,,0.68,Acu-Link.com,2013-07-03 22:21:00,
2013-07-03 18:36:00,66.4,66.1,29.91,WSW,247,2.2,-999.0,99,-99.99,,,0.72,Acu-Link.com,2013-07-03 22:36:00,
2013-07-03 18:51:00,66.2,65.9,29.92,WSW,247,0.0,-999.0,99,-99.99,,,0.77,Acu-Link.com,2013-07-03 22:51:00,
2013-07-03 19:06:00,65.1,64.8,29.92,West,270,0.0,-999.0,99,-99.99,,,0.83,Acu-Link.com,2013-07-03 23:06:00,
2013-07-03 19:37:00,62.8,62.5,29.92,West,270,0.0,-999.0,99,-99.99,,,1.00,Acu-Link.com,2013-07-03 23:37:00,
2013-07-03 19:52:00,62.6,62.3,29.92,SW,225,0.0,-999.0,99,-99.99,,,1.17,Acu-Link.com,2013-07-03 23:52:00,
2013-07-03 20:07:00,62.4,62.1,29.92,East,90,0.0,-999.0,99,-99.99,,,1.21,Acu-Link.com,2013-07-04 00:07:00,
2013-07-03 20:38:00,62.2,61.9,29.91,NE,45,0.0,-999.0,99,-99.99,,,1.24,Acu-Link.com,2013-07-04 00:38:00,
2013-07-03 21:09:00,62.1,61.8,29.91,ENE,67,1.7,-999.0,99,-99.99,,,1.24,Acu-Link.com,2013-07-04 01:09:00,
2013-07-03 21:24:00,61.9,61.6,29.90,NE,45,0.0,-999.0,99,-99.99,,,1.25,Acu-Link.com,2013-07-04 01:24:00,
2013-07-03 21:39:00,61.7,61.4,29.89,NE,45,0.0,-999.0,99,-99.99,,,1.25,Acu-Link.com,2013-07-04 01:39:00,
2013-07-03 21:54:00,61.7,61.4,29.90,ENE,67,0.0,-999.0,99,-99.99,,,1.25,Acu-Link.com,2013-07-04 01:54:00,
2013-07-03 22:09:00,61.7,61.4,29.91,ENE,67,0.0,-999.0,99,-99.99,,,1.25,Acu-Link.com,2013-07-04 02:09:00,
2013-07-03 22:24:00,61.5,61.2,29.91,ENE,67,0.0,-999.0,99,-99.99,,,1.25,Acu-Link.com,2013-07-04 02:24:00,
2013-07-03 22:39:00,61.7,61.4,29.92,ESE,112,0.0,-999.0,99,-99.99,,,1.25,Acu-Link.com,2013-07-04 02:39:00,
2013-07-03 23:25:00,61.7,61.4,29.93,SW,225,0.0,-999.0,99,-99.99,,,1.25,Acu-Link.com,2013-07-04 03:25:00,
2013-07-03 23:41:00,61.7,61.4,29.93,ESE,112,0.0,-999.0,99,-99.99,,,1.25,Acu-Link.com,2013-07-04 03:41:00,
2013-07-03 23:56:00,61.7,61.4,29.93,ENE,67,0.0,-999.0,99,-99.99,,,1.25,Acu-Link.com,2013-07-04 03:56:00,